THORAD DELTA 1 DEB, 42623

Orbit data source: Space-Track

THORAD DELTA 1 DEB, 42623 is space debris in SSO originally from a launch on Fri, 15 Nov 1974 UTC launched from the Air Force Western Test Range (AFWTR). Debris objects in space refer to the collection of defunct objects orbiting the Earth. Examples of debris include non-operational satellites, rocket bodies, and fragments generated from explosions, collisions, or faulty payload assembly.

Loading next visibility...
Identifier
42623, 1974-089GQ
Orbit
SSO
Country
Flag of USUS
Related business
Manufacturer
Unknown
Mission
Spacecraft
Bus & Motor
Unknown
Mass
Unknown
Launch date (UTC)
1974-11-15 (51 years ago)
Launch vehicle
Unknown
Launch site
Air Force Western Test Range (AFWTR)
Object type
Payload
Rocket body
Debris
Shape & HBR
Unknown shape, 0.1 m
Radar Cross Section
Small (<0.1 m²)

Expand to show TLE details & history
Last TLE update: 4 weeks ago

TLE from 4 weeks ago
0 THORAD DELTA 1 DEB
1 42623U 74089GQ  25262.25103492 -.00000020  00000-0  19161-3 0  9992
2 42623 102.2272 267.6725 0071740 322.9934  36.6196 12.43791941198573
Epoch: 2025-09-19T06:01Z
TLE epoch observation values (Epoch: 2025-09-19T06:01:29.417Z)
Latitude
0.00005°
Longitude
178.89896°
Altitude
1,447.946 km
Speed
7.159 km/s
True Right ascension
17h 50m 41s
True Declination
0° 00' 00"
Sunlit
Object was in daylight at epoch
Visualization orbit readout
Latitude
Unknown
Longitude
Unknown
Altitude
Unknown
Speed
Unknown
Apparent Right ascension
Unknown
Apparent Declination
Unknown
Sunlit
N/A
Visualization observer readout
Local Sidereal Time
05:46:48
Azimuth
Unknown
Elevation
Unknown
Doppler factor
Unknown
Orbital elements
Apogee altitude
1,544.586 km
Perigee altitude
1,431.72 km
Semi-major axis
7,866.29 km
Eccentricity
0.00717
Inclination
102.2272°
RAAN
267.6725°
Arg. of periapsis
322.9934°
True anomaly
37.11352°
Mean anomaly
36.6196°
Eccentric anomaly
36.8662°
Mean motion
3.11092 °/min
Orbital period
115.72 mins
BSTAR
0.00019161
Loading maneuver chart data...
Computing Atmospheric mass density...
Loading historical data...
Loading historical data...
Loading historical data...
Loading historical data...
Loading historical data...
Loading historical data...
Loading historical data...

Documentation

Showing up to 5 results
|